Simultaneous Nadir Overpasses (SNOs) Predictions

Prediction of SNOs between NOAA-20 and GCOM-C Satellite Orbit:

Table of predicted SNOs for the next 14.0 days since TLE Epoch: 12/1/2024
Index Date (NOAA-20) Time (NOAA-20) Lat,Lon (NOAA-20) SZA (NOAA-20 ) Date (GCOM-C) Time (GCOM-C) Lat,Lon (GCOM-C) SZA (GCOM-C ) Distance(km) Time Diff (sec)
1 12/09/2024 01:13:06 -69.93, -22.10 87.33 12/09/2024 01:14:15 -69.87, -20.32 87.40 68.29 69
2 12/09/2024 02:03:40 69.29, 146.14 92.03 12/09/2024 02:04:53 69.27, 146.22 92.01 3.86 73
3 12/09/2024 02:54:22 -69.20, -46.41 88.06 12/09/2024 02:55:24 -69.21, -46.48 88.05 3.08 62
4 12/09/2024 03:45:08 69.20, 120.90 91.95 12/09/2024 03:45:51 69.21, 120.90 91.95 0.95 43
5 12/09/2024 04:35:52 -69.21, -71.81 88.04 12/09/2024 04:36:21 -69.20, -71.73 88.05 3.09 29
6 12/09/2024 05:26:37 69.16, 95.58 91.91 12/09/2024 05:26:49 69.14, 95.57 91.89 1.95 12
7 12/09/2024 06:17:20 -69.12, -97.05 88.13 12/09/2024 06:17:19 -69.14, -97.06 88.11 2.05 1
8 12/09/2024 07:08:06 69.12, 70.26 91.88 12/09/2024 07:07:46 69.13, 70.32 91.89 2.45 20
9 12/09/2024 07:58:49 -69.08,-122.37 88.16 12/09/2024 07:58:17 -69.07,-122.38 88.17 1.03 32
10 12/09/2024 08:49:35 69.08, 44.95 91.84 12/09/2024 08:48:44 69.06, 44.99 91.83 2.38 51
11 12/09/2024 09:40:18 -69.04,-147.69 88.20 12/09/2024 09:39:14 -69.06,-147.64 88.17 3.08 64
12 12/09/2024 10:30:59 68.77, 19.99 91.54 12/09/2024 10:29:46 68.78, 19.38 91.56 24.73 73
13 12/09/2024 11:21:34 -68.30,-172.08
